User: anonymous   Login
Location: Kerb�bon
(47.7970°N, 3.3487°W)
Time: 22:40:38
(UTC+00:00)
Language:

Cosmos 1818 - Orbit

View from above orbital plane
View from above orbital plane
View from above satellite
View from above satellite

Ground track
Ground track

The orbit data is extracted from the following two-line orbital elements,

1 17369U 87011A   21212.25780039 -.00000079  00000-0  80545-5 0  9999
2 17369  65.0094 198.6925 0021968 273.8249  86.0324 14.31470089853694
Epoch (UTC): 31 July 2021 06:11:13
Eccentricity: 0.0021968
inclination: 65.0094°
perigee height: 771 km
apogee height: 802 km
right ascension of ascending node: 198.6925°
argument of perigee: 273.8249°
revolutions per day: 14.31470089
mean anomaly at epoch: 86.0324°
orbit number at epoch: 85369

The dashed part of the orbit path shows where the satellite is in the earth's shadow,  

DLR